Wind_Speed
33 36 39 39 32 30 33 32 30 29 27 26 25 20 19 19 22 22 25 27 30 32 29 27 23 21 16 11 7 8 6 4 6 6 7 8 8 8 8 9 9 10 11 12 12 13 14 14 16
32 35 36 29 30 30 35 30 29 29 28 24 24 19 16 18 18 22 29 31 31 31 26 24 21 17 11 6 6 2 1 3 4 4 5 5 5 4 5 7 7 8 9 10 11 13 14 14 15
37 23 22 29 27 29 32 32 27 25 26 26 29 23 23 23 19 25 32 33 32 31 27 22 16 10 6 4 2 4 5 3 1 1 2 3 4 5 6 8 9 10 10 11 12 14 15 15 16
24 27 25 27 32 34 35 32 24 24 22 22 29 31 23 19 20 30 37 35 32 27 19 16 9 4 3 6 6 5 3 1 2 4 6 6 7 9 10 11 11 13 13 14 14 15 16 17 17
23 22 36 27 33 31 34 31 32 27 23 23 34 18 15 19 26 34 35 32 25 17 13 8 4 8 9 8 6 4 4 4 6 8 10 11 13 14 15 16 17 18 19 19 19 20 21 21 22
28 27 28 32 36 30 30 30 27 25 26 23 15 18 24 27 31 33 28 24 17 14 9 8 11 10 8 7 5 4 5 7 10 12 13 15 17 18 19 20 20 22 23 23 23 25 25 27 28
16 21 30 33 30 32 23 20 24 20 11 16 16 25 28 28 31 30 22 19 14 10 10 14 12 8 7 5 6 6 8 10 13 14 16 17 19 19 21 22 23 25 27 27 28 28 28 28 28
21 24 30 27 36 34 31 30 15 9 15 18 20 25 25 24 21 18 15 11 10 12 15 12 8 7 7 7 8 10 12 14 16 18 18 20 21 22 23 24 24 24 25 26 28 28 29 29 29
25 26 27 24 21 24 13 1 8 16 18 20 21 21 17 8 4 9 12 12 12 13 11 9 9 9 8 10 12 14 16 18 19 20 22 23 23 24 24 23 24 25 27 28 29 29 29 29 29
29 26 22 19 20 12 8 6 13 15 16 14 14 13 9 8 10 12 12 12 10 10 10 9 10 11 12 13 15 17 19 21 23 23 25 24 24 25 27 27 27 29 29 31 32 32 32 33 33
34 28 23 15 9 15 1 13 19 16 13 6 10 11 9 7 7 8 8 7 8 10 10 10 12 13 16 17 18 21 24 23 24 27 26 26 27 26 28 28 29 31 32 34 34 33 33 32 32
12 16 13 12 7 5 6 10 8 5 5 5 9 10 10 6 5 5 5 6 8 10 10 10 13 16 18 19 21 25 24 24 28 30 29 27 28 28 28 32 36 35 35 35 34 33 31 30 30
15 10 10 4 5 6 7 8 5 6 7 9 10 9 8 6 5 4 4 5 7 10 12 15 15 18 20 22 24 23 26 24 27 29 28 29 29 30 36 38 38 38 35 34 34 33 31 31 30
6 12 10 9 11 11 9 7 8 11 12 10 8 9 7 5 4 4 3 5 8 12 15 17 18 20 22 23 24 24 22 27 27 30 29 33 35 37 37 40 42 39 36 34 33 33 34 34 34
6 11 8 10 10 9 10 10 13 12 13 11 10 8 7 6 4 4 6 10 12 14 15 19 19 22 23 24 21 23 21 28 32 37 37 34 37 38 40 43 42 39 37 36 37 37 37 37 38
11 15 13 12 11 11 8 9 8 6 7 7 8 10 8 7 7 11 13 13 14 16 18 21 21 24 23 26 29 28 29 32 39 38 40 42 42 43 43 42 41 41 40 40 41 42 43 44 45
18 18 14 12 10 10 9 6 5 6 6 6 8 8 9 8 12 14 15 18 22 21 22 21 22 18 25 25 29 33 42 44 44 44 44 45 44 47 43 40 40 41 43 45 45 46 47 48 49
22 19 16 14 10 10 9 5 4 7 9 9 10 10 10 13 16 18 19 21 22 22 21 24 24 26 29 36 42 43 46 46 47 47 47 52 50 47 44 43 43 43 45 48 48 51 54 55 57
20 22 13 11 3 4 5 5 6 6 8 10 10 11 14 18 22 23 25 25 25 21 21 26 29 35 43 45 48 49 48 48 51 54 53 54 50 48 48 47 49 52 54 57 60 62 63 65 67
16 21 11 6 0 5 9 12 11 10 11 12 13 14 16 18 24 26 25 25 25 25 27 31 36 40 43 46 49 52 54 55 56 56 56 52 51 51 51 54 57 61 65 67 69 72 74 76 76
14 11 7 5 8 10 12 14 15 16 16 15 14 14 15 21 25 26 25 25 24 28 32 36 42 47 50 52 53 54 56 57 57 56 53 52 51 52 57 61 67 71 73 74 77 79 82 83 84
10 10 11 11 12 18 19 22 20 20 21 21 21 18 20 23 25 24 25 28 29 33 39 38 40 43 47 50 52 57 59 59 57 54 54 54 57 61 65 69 73 76 79 81 83 84 86 87 87
11 11 11 12 14 17 22 25 24 24 24 24 23 24 25 26 28 26 28 33 35 39 40 40 40 44 46 51 56 57 55 53 51 51 52 56 59 64 69 73 77 80 82 84 86 86 85 85 85
10 11 13 16 18 21 24 27 29 25 23 21 21 24 25 27 29 31 38 39 42 41 42 40 43 45 50 52 50 49 49 48 49 54 57 61 66 70 74 78 81 84 86 87 87 87 86 86 86
11 13 13 14 12 15 16 18 20 21 22 25 27 27 29 29 30 31 38 44 46 37 43 37 40 43 48 45 42 42 46 51 55 59 63 67 71 77 80 84 87 90 90 88 87 86 86 87 89
8 7 8 9 9 10 10 15 17 19 22 24 26 28 30 26 36 36 41 42 49 30 30 39 40 40 37 37 42 45 49 54 58 63 68 74 79 82 86 89 91 90 88 87 87 88 90 90 90
7 7 4 3 6 8 10 14 16 20 24 26 27 29 32 33 34 39 44 46 37 34 35 32 32 34 37 41 46 51 55 61 67 72 77 80 83 87 90 92 93 91 90 91 91 91 88 84 79
9 6 3 3 5 8 12 15 18 20 22 20 21 23 27 28 31 32 32 30 33 33 30 34 36 39 44 49 54 58 63 69 73 78 81 85 88 92 93 94 94 94 94 93 91 89 79 68 72
8 6 3 4 9 14 17 20 20 24 26 27 27 29 28 27 28 31 31 33 32 33 37 38 42 47 51 55 59 65 70 73 77 81 86 90 93 95 95 95 95 96 96 91 84 72 63 64 69
8 7 8 10 13 16 18 20 21 24 25 28 28 31 32 34 34 34 33 33 36 38 40 44 48 52 55 59 64 69 71 75 81 86 89 92 94 95 97 95 95 92 80 73 66 60 62 67 69
Wind_Direction
235 231 237 236 228 220 226 223 227 229 230 231 238 240 245 264 267 272 291 287 283 281 280 287 295 298 289 293 292 304 320 352 6 12 29 32 26 13 9 7 4 356 356 350 348 344 339 333 328
231 232 235 232 229 205 215 215 215 226 238 233 235 235 241 258 278 280 288 288 285 277 281 287 292 288 290 286 301 302 136 97 81 57 43 38 35 13 355 343 338 342 336 333 335 330 329 329 330
222 223 228 216 215 204 210 212 212 228 242 242 228 225 234 241 276 283 289 287 281 278 280 288 282 280 266 276 191 141 129 127 97 10 314 320 326 320 312 310 319 318 317 314 312 311 310 311 312
230 208 206 225 197 208 214 216 211 228 228 250 236 229 231 291 280 287 288 280 275 277 276 270 265 241 176 141 131 134 158 190 288 289 290 300 293 290 291 291 292 293 293 296 296 294 294 295 295
223 229 210 199 206 210 217 212 216 228 244 257 246 267 283 279 293 291 280 269 270 268 261 250 184 148 138 140 152 178 216 253 277 284 291 294 293 293 291 290 290 289 288 287 286 285 286 286 290
206 208 196 204 204 209 214 227 225 226 235 261 303 307 294 288 280 279 270 266 261 255 226 172 158 156 160 176 194 217 251 272 280 286 294 295 295 293 293 292 289 286 285 285 285 284 285 285 286
180 199 195 208 206 219 199 207 218 229 248 302 319 292 280 279 277 271 263 253 240 206 169 165 168 171 186 211 241 263 275 282 284 289 291 294 295 295 293 292 292 291 290 290 287 286 286 285 285
179 203 208 202 201 215 220 229 197 240 285 296 300 274 276 273 266 257 243 219 188 172 171 170 180 202 222 247 267 276 279 277 280 283 287 289 291 294 294 293 294 297 299 298 295 291 288 286 283
199 210 202 199 220 213 191 262 309 287 274 276 279 265 259 259 221 179 176 173 171 175 181 184 212 229 247 264 273 274 273 274 276 285 296 303 301 299 298 298 300 300 302 302 300 299 297 291 285
183 203 213 215 222 232 257 344 327 303 298 290 259 232 206 134 132 141 151 162 179 193 201 215 236 256 262 266 267 271 272 277 289 301 304 304 301 301 301 302 303 303 304 303 300 299 298 298 294
194 196 216 238 190 261 100 352 323 294 285 265 192 182 174 153 151 159 167 188 211 228 241 249 259 266 268 268 270 271 280 288 290 294 300 300 300 298 297 299 302 301 300 299 299 298 296 293 291
175 213 204 248 214 220 1 326 290 239 224 224 198 189 177 177 188 197 203 216 240 255 268 275 277 278 281 279 282 287 286 292 301 310 305 304 304 300 297 300 303 303 303 301 300 297 297 292 290
170 195 204 168 215 231 273 259 244 223 226 218 195 190 194 196 205 213 232 245 267 284 282 278 276 277 276 281 283 283 284 288 299 299 298 299 300 300 302 304 304 304 302 300 296 295 292 287 286
192 205 211 190 216 226 216 193 203 196 203 218 211 205 210 218 200 207 225 291 284 278 278 283 282 280 283 278 278 276 297 276 301 304 302 303 301 304 305 305 304 303 301 298 295 293 292 291 289
192 200 243 233 234 207 194 185 192 192 191 204 217 234 245 248 267 301 299 269 263 265 271 278 285 292 290 286 276 284 279 297 307 311 305 305 300 304 306 305 302 301 300 299 299 298 297 297 295
179 183 162 176 178 192 188 180 181 188 205 224 240 248 254 248 238 228 244 263 270 276 281 290 292 298 290 286 287 293 301 312 312 308 308 305 303 304 305 303 302 303 304 303 302 300 300 298 296
169 165 171 169 178 192 191 179 171 196 233 246 243 236 236 244 256 268 282 289 289 297 298 300 304 305 299 293 301 309 313 312 311 307 304 301 303 305 304 302 300 300 299 298 297 297 296 295 294
174 176 168 170 183 184 182 197 196 208 234 244 248 262 272 283 288 284 288 290 296 302 303 304 308 306 294 302 310 311 307 306 304 302 300 305 307 305 303 300 297 296 297 297 297 298 299 298 297
180 183 186 179 163 258 248 225 244 254 236 250 281 293 303 297 295 297 300 308 310 311 311 307 305 303 306 305 304 304 303 301 301 306 307 306 305 303 304 306 306 304 302 301 300 300 300 298 295
172 183 170 124 351 276 292 297 297 291 295 307 312 307 294 287 291 296 303 312 316 309 310 305 302 298 297 299 300 302 302 301 303 305 305 305 304 304 305 304 303 303 304 304 303 302 300 298 296
178 182 199 222 261 280 284 278 282 288 293 294 286 284 276 282 288 299 299 304 302 296 296 296 298 297 297 298 299 300 300 301 301 302 301 301 304 304 304 303 304 305 304 303 301 299 298 297 296
219 232 241 248 266 277 282 283 287 288 286 287 287 284 275 281 286 289 287 288 291 287 290 298 296 298 299 298 300 301 300 301 303 303 302 304 303 300 301 302 303 303 302 301 299 297 295 294 292
217 235 249 259 263 266 272 279 282 283 288 291 291 289 282 274 287 288 284 290 283 287 291 290 296 297 293 292 294 296 295 297 296 297 296 293 296 300 302 301 299 298 297 298 297 297 296 295 293
220 237 249 256 261 264 269 274 281 284 283 284 285 283 283 278 271 276 284 285 281 283 284 291 293 295 295 296 296 295 294 294 295 296 299 300 300 299 299 299 299 301 302 302 301 299 297 294 292
243 250 253 259 263 264 270 276 288 294 295 290 291 290 290 285 278 291 292 283 279 282 302 288 292 290 293 293 293 293 295 298 298 297 296 297 299 301 303 305 306 305 304 303 300 297 294 292 288
218 231 245 255 268 285 300 309 311 305 302 298 292 290 287 285 282 275 286 259 305 307 281 282 287 290 291 293 295 295 295 296 298 301 303 305 306 306 306 306 306 305 304 301 300 298 296 293 290
204 212 222 264 298 315 336 346 341 336 329 321 314 308 304 299 289 284 283 282 285 279 287 291 293 292 295 298 300 303 304 308 309 310 310 308 307 306 307 309 309 307 305 303 302 300 297 294 290
180 194 210 284 323 337 344 352 350 349 344 336 325 318 310 303 292 288 284 285 282 289 296 297 299 303 306 307 309 311 312 314 313 312 310 309 308 311 312 310 308 306 305 303 301 300 299 293 292
204 222 237 306 326 329 331 334 337 342 339 339 334 329 319 307 299 295 295 294 297 302 302 306 309 309 309 310 314 316 316 313 313 311 311 312 312 311 309 307 306 305 304 302 302 302 295 300 309
231 251 271 301 320 324 327 328 330 332 334 333 327 326 323 316 309 302 302 304 304 304 307 308 309 310 311 314 315 314 313 313 315 315 314 311 309 309 308 307 306 306 305 302 303 301 305 309 311
Height
5826 5826 5827 5830 5835 5835 5835 5840 5842 5843 5846 5850 5850 5850 5851 5851 5850 5853 5851 5849 5848 5848 5846 5845 5844 5843 5841 5840 5840 5839 5839 5839 5838 5837 5836 5835 5834 5833 5832 5830 5829 5826 5824 5822 5820 5818 5816 5815 5814
5820 5821 5823 5825 5830 5830 5833 5839 5841 5841 5842 5845 5846 5846 5846 5846 5847 5848 5847 5846 5845 5843 5843 5842 5841 5840 5839 5839 5839 5839 5839 5839 5839 5838 5837 5836 5835 5834 5832 5830 5829 5826 5825 5823 5820 5819 5817 5815 5813
5815 5816 5820 5820 5825 5828 5832 5836 5840 5840 5838 5838 5839 5840 5839 5839 5842 5843 5842 5841 5840 5840 5840 5840 5839 5838 5838 5838 5838 5839 5839 5839 5839 5838 5837 5836 5835 5834 5833 5831 5828 5827 5824 5823 5820 5818 5816 5814 5812
5812 5815 5820 5820 5821 5824 5828 5833 5838 5837 5838 5836 5833 5834 5836 5837 5838 5838 5838 5837 5836 5838 5839 5838 5837 5837 5838 5839 5839 5839 5839 5839 5838 5837 5836 5834 5834 5833 5831 5829 5826 5824 5823 5821 5819 5817 5815 5813 5810
5808 5811 5814 5817 5817 5822 5823 5829 5832 5834 5833 5834 5834 5831 5833 5834 5835 5835 5833 5833 5835 5836 5835 5835 5836 5837 5838 5838 5838 5838 5837 5837 5836 5835 5834 5833 5832 5830 5828 5826 5824 5822 5821 5819 5817 5815 5813 5810 5807
5805 5809 5811 5814 5817 5818 5821 5825 5830 5831 5832 5829 5828 5829 5831 5833 5832 5832 5831 5830 5833 5833 5833 5833 5836 5836 5836 5837 5837 5837 5836 5836 5835 5833 5832 5830 5829 5827 5825 5823 5821 5819 5818 5815 5814 5812 5809 5807 5805
5804 5808 5810 5812 5816 5817 5823 5822 5825 5828 5828 5827 5830 5830 5829 5829 5828 5828 5829 5830 5830 5831 5832 5834 5835 5835 5836 5836 5836 5835 5835 5834 5832 5831 5830 5828 5827 5824 5822 5821 5819 5816 5814 5812 5810 5808 5805 5803 5801
5803 5807 5807 5811 5812 5815 5819 5821 5824 5825 5826 5828 5830 5827 5827 5826 5825 5825 5827 5828 5829 5830 5832 5833 5834 5834 5834 5834 5834 5834 5833 5831 5830 5828 5826 5824 5823 5820 5818 5816 5815 5813 5811 5808 5806 5803 5800 5799 5797
5802 5804 5807 5809 5810 5814 5817 5818 5821 5824 5826 5829 5828 5826 5826 5825 5824 5825 5826 5827 5829 5830 5832 5832 5833 5833 5832 5832 5832 5831 5830 5828 5826 5825 5823 5821 5819 5817 5814 5812 5810 5808 5806 5803 5800 5798 5795 5793 5791
5801 5804 5807 5808 5809 5811 5814 5816 5820 5822 5825 5827 5826 5826 5827 5826 5826 5826 5827 5829 5829 5831 5831 5831 5831 5832 5831 5830 5829 5829 5826 5825 5824 5823 5821 5817 5814 5811 5809 5807 5806 5803 5800 5798 5794 5791 5788 5786 5784
5802 5803 5806 5807 5809 5812 5814 5819 5820 5819 5822 5825 5826 5825 5826 5827 5828 5828 5828 5829 5830 5830 5830 5831 5830 5829 5828 5828 5826 5825 5824 5823 5821 5819 5816 5812 5809 5807 5804 5802 5799 5796 5794 5791 5787 5785 5781 5779 5777
5803 5804 5806 5809 5810 5812 5816 5821 5821 5820 5822 5824 5826 5826 5827 5828 5828 5828 5828 5829 5828 5828 5829 5829 5827 5826 5825 5824 5823 5822 5820 5818 5816 5813 5810 5807 5805 5802 5798 5795 5792 5789 5786 5782 5779 5776 5773 5771 5769
5803 5805 5809 5811 5812 5815 5818 5822 5821 5822 5823 5824 5825 5825 5827 5827 5828 5828 5827 5826 5826 5826 5826 5826 5825 5824 5822 5821 5819 5817 5815 5812 5810 5809 5806 5802 5799 5796 5792 5787 5784 5781 5778 5774 5771 5768 5766 5764 5762
5803 5805 5809 5813 5814 5816 5819 5820 5822 5822 5823 5823 5823 5824 5825 5826 5827 5827 5826 5827 5826 5825 5824 5822 5821 5821 5818 5816 5815 5812 5809 5808 5806 5803 5800 5796 5792 5788 5783 5779 5775 5772 5768 5765 5763 5760 5758 5757 5755
5803 5807 5809 5810 5812 5814 5817 5820 5821 5822 5822 5823 5823 5823 5824 5824 5823 5825 5825 5824 5823 5823 5821 5820 5817 5815 5811 5809 5808 5807 5804 5801 5798 5795 5792 5788 5784 5779 5775 5770 5766 5762 5758 5755 5753 5750 5748 5747 5745
5805 5807 5809 5811 5812 5814 5816 5818 5819 5819 5820 5821 5822 5821 5821 5821 5822 5822 5821 5820 5819 5818 5816 5815 5811 5808 5805 5801 5798 5796 5795 5792 5789 5785 5781 5777 5774 5770 5767 5762 5758 5753 5749 5746 5743 5741 5738 5736 5733
5806 5808 5810 5810 5812 5813 5814 5815 5816 5818 5819 5820 5819 5819 5819 5818 5818 5817 5815 5814 5813 5811 5809 5808 5805 5803 5800 5795 5790 5787 5786 5782 5778 5775 5771 5768 5765 5761 5758 5754 5750 5745 5741 5736 5734 5731 5728 5725 5723
5807 5808 5809 5809 5810 5811 5813 5814 5815 5816 5817 5816 5815 5815 5815 5815 5814 5813 5812 5811 5809 5807 5804 5801 5798 5797 5794 5785 5783 5781 5779 5775 5770 5767 5764 5759 5754 5749 5745 5743 5739 5735 5730 5727 5724 5721 5717 5712 5709
5806 5808 5808 5808 5808 5809 5810 5812 5812 5813 5813 5813 5812 5811 5811 5811 5809 5807 5805 5804 5803 5801 5799 5797 5795 5790 5786 5782 5776 5774 5771 5766 5762 5756 5752 5747 5742 5737 5733 5728 5724 5720 5717 5713 5709 5704 5699 5694 5690
5804 5806 5808 5808 5807 5808 5808 5809 5809 5810 5810 5810 5809 5809 5809 5807 5804 5803 5802 5800 5797 5795 5794 5792 5789 5785 5780 5775 5770 5765 5760 5756 5751 5746 5742 5736 5730 5726 5721 5716 5711 5705 5700 5695 5689 5684 5678 5673 5667
5802 5804 5805 5806 5806 5806 5807 5807 5806 5807 5807 5808 5808 5808 5806 5803 5801 5799 5797 5795 5793 5791 5789 5785 5782 5777 5772 5767 5762 5757 5752 5746 5742 5737 5731 5725 5720 5715 5709 5703 5697 5690 5683 5677 5671 5664 5657 5651 5645
5802 5802 5804 5805 5806 5804 5803 5803 5804 5805 5804 5804 5804 5804 5801 5798 5795 5794 5793 5790 5789 5786 5781 5777 5774 5771 5766 5760 5753 5746 5740 5735 5730 5725 5719 5714 5709 5703 5697 5690 5682 5674 5666 5659 5653 5646 5639 5632 5626
5801 5802 5802 5803 5803 5803 5801 5800 5800 5800 5800 5799 5798 5797 5796 5793 5791 5789 5786 5784 5781 5778 5774 5770 5766 5762 5757 5752 5747 5741 5735 5730 5724 5719 5714 5709 5703 5695 5687 5679 5670 5662 5653 5643 5634 5625 5616 5607 5599
5799 5800 5800 5800 5800 5800 5798 5796 5794 5796 5795 5794 5793 5791 5789 5787 5785 5783 5782 5778 5774 5770 5766 5762 5757 5751 5746 5742 5737 5732 5727 5721 5716 5710 5703 5696 5688 5681 5671 5661 5650 5639 5629 5620 5610 5599 5590 5581 5573
5797 5797 5797 5797 5797 5795 5794 5793 5792 5791 5790 5788 5786 5785 5784 5783 5782 5778 5775 5770 5765 5761 5758 5753 5749 5745 5740 5736 5730 5724 5719 5712 5705 5697 5690 5682 5672 5661 5648 5636 5626 5615 5605 5596 5586 5575 5565 5556 5546
5794 5795 5795 5795 5794 5793 5792 5791 5789 5786 5784 5782 5780 5779 5776 5775 5772 5770 5768 5761 5755 5750 5749 5747 5742 5737 5732 5727 5721 5715 5709 5701 5693 5684 5674 5662 5649 5638 5627 5616 5605 5593 5581 5569 5560 5549 5537 5525 5514
5793 5793 5793 5792 5792 5791 5790 5788 5785 5781 5778 5775 5773 5771 5767 5766 5765 5762 5758 5753 5749 5746 5742 5737 5733 5729 5723 5717 5710 5703 5694 5685 5675 5664 5653 5642 5630 5618 5607 5593 5580 5567 5555 5542 5532 5522 5510 5498 5487
5791 5792 5792 5791 5790 5788 5787 5784 5782 5779 5776 5773 5769 5765 5761 5757 5753 5749 5746 5742 5738 5734 5731 5727 5723 5717 5711 5703 5695 5687 5679 5668 5657 5646 5634 5621 5609 5596 5582 5569 5556 5543 5530 5518 5507 5497 5486 5476 5467
5790 5790 5789 5789 5787 5784 5782 5781 5778 5775 5771 5767 5763 5759 5754 5750 5744 5739 5735 5731 5728 5724 5721 5716 5710 5703 5696 5689 5680 5671 5661 5652 5641 5630 5616 5602 5588 5576 5563 5549 5535 5520 5508 5495 5483 5475 5466 5458 5449
5786 5786 5786 5785 5785 5782 5779 5778 5773 5770 5767 5763 5757 5752 5747 5742 5736 5731 5727 5724 5720 5716 5710 5704 5698 5690 5682 5674 5667 5658 5649 5637 5624 5611 5597 5584 5571 5557 5542 5529 5514 5496 5481 5471 5465 5457 5450 5442 5434